Time,TemperatureF,DewpointF,PressureIn,WindDirection,WindDirectionDegrees,WindSpeedMPH,WindSpeedGustMPH,Humidity,HourlyPrecipIn,Conditions,Clouds,dailyrainin,SoftwareType,DateUTC
2013-10-05 00:01:00,42.8,32.0,30.24,SW,232,0.0,0.0,65,0.00,,,0.00,WUHU216WMR968SP,2013-10-05 07:01:00,
2013-10-05 00:06:00,42.6,32.0,30.24,SW,232,0.0,0.0,66,0.00,,,0.00,WUHU216WMR968SP,2013-10-05 07:06:00,
2013-10-05 00:11:00,42.6,32.0,30.24,SW,232,0.0,0.0,67,0.00,,,0.00,WUHU216WMR968SP,2013-10-05 07:11:00,
2013-10-05 00:16:00,42.6,32.0,30.24,SW,232,0.0,0.0,67,0.00,,,0.00,WUHU216WMR968SP,2013-10-05 07:16:00,
2013-10-05 00:21:00,42.4,32.0,30.24,SW,232,0.0,0.0,67,0.00,,,0.00,WUHU216WMR968SP,2013-10-05 07:21:00,
2013-10-05 00:26:00,42.4,32.0,30.24,SW,232,0.0,0.0,67,0.00,,,0.00,WUHU216WMR968SP,2013-10-05 07:26:00,
2013-10-05 00:31:00,42.3,33.8,30.24,SW,232,0.0,0.0,68,0.00,,,0.00,WUHU216WMR968SP,2013-10-05 07:31:00,
2013-10-05 00:36:00,42.1,33.8,30.24,SW,232,0.0,0.0,68,0.00,,,0.00,WUHU216WMR968SP,2013-10-05 07:36:00,
2013-10-05 00:41:00,41.9,33.8,30.24,SW,232,0.0,0.0,68,0.00,,,0.00,WUHU216WMR968SP,2013-10-05 07:41:00,
2013-10-05 00:46:00,41.7,32.0,30.24,SW,232,0.0,0.0,68,0.00,,,0.00,WUHU216WMR968SP,2013-10-05 07:46:00,
2013-10-05 00:51:00,41.5,32.0,30.24,SW,232,0.0,0.0,69,0.00,,,0.00,WUHU216WMR968SP,2013-10-05 07:51:00,
2013-10-05 00:56:00,41.5,32.0,30.24,SW,232,0.0,0.0,69,0.00,,,0.00,WUHU216WMR968SP,2013-10-05 07:56:00,
2013-10-05 01:01:00,41.5,32.0,30.24,SW,232,0.0,0.0,69,0.00,,,0.00,WUHU216WMR968SP,2013-10-05 08:01:00,
2013-10-05 01:06:00,41.5,32.0,30.24,SW,232,0.0,0.0,70,0.00,,,0.00,WUHU216WMR968SP,2013-10-05 08:06:00,
2013-10-05 01:11:00,41.5,32.0,30.24,SW,232,0.0,0.0,70,0.00,,,0.00,WUHU216WMR968SP,2013-10-05 08:11:00,
2013-10-05 01:16:00,41.5,32.0,30.24,SW,232,0.0,0.0,70,0.00,,,0.00,WUHU216WMR968SP,2013-10-05 08:16:00,
2013-10-05 01:21:00,41.4,32.0,30.24,SW,232,0.0,0.0,70,0.00,,,0.00,WUHU216WMR968SP,2013-10-05 08:21:00,
2013-10-05 01:26:00,41.4,32.0,30.24,SW,232,0.0,0.0,70,0.00,,,0.00,WUHU216WMR968SP,2013-10-05 08:26:00,
2013-10-05 01:31:00,41.2,32.0,30.24,SW,232,0.0,0.0,71,0.00,,,0.00,WUHU216WMR968SP,2013-10-05 08:31:00,
2013-10-05 01:36:00,41.2,32.0,30.24,SW,232,0.0,0.0,71,0.00,,,0.00,WUHU216WMR968SP,2013-10-05 08:36:00,
2013-10-05 01:41:00,41.2,32.0,30.24,SW,232,0.0,0.0,71,0.00,,,0.00,WUHU216WMR968SP,2013-10-05 08:41:00,
2013-10-05 01:46:00,41.2,32.0,30.24,SW,232,0.0,0.0,71,0.00,,,0.00,WUHU216WMR968SP,2013-10-05 08:46:00,
2013-10-05 01:51:00,41.0,32.0,30.24,SW,232,0.0,0.0,71,0.00,,,0.00,WUHU216WMR968SP,2013-10-05 08:51:00,
2013-10-05 01:56:00,41.0,32.0,30.24,SW,232,0.0,0.0,71,0.00,,,0.00,WUHU216WMR968SP,2013-10-05 08:56:00,
2013-10-05 02:01:00,41.0,32.0,30.24,SW,232,0.0,0.0,71,0.00,,,0.00,WUHU216WMR968SP,2013-10-05 09:01:00,
2013-10-05 02:06:00,40.8,32.0,30.24,SW,232,0.0,0.0,72,0.00,,,0.00,WUHU216WMR968SP,2013-10-05 09:06:00,
2013-10-05 02:11:00,40.8,32.0,30.24,SW,232,0.0,0.0,72,0.00,,,0.00,WUHU216WMR968SP,2013-10-05 09:11:00,
2013-10-05 02:16:00,40.6,32.0,30.24,SW,232,0.0,0.0,72,0.00,,,0.00,WUHU216WMR968SP,2013-10-05 09:16:00,
2013-10-05 02:21:00,40.5,32.0,30.24,SW,232,0.0,0.0,72,0.00,,,0.00,WUHU216WMR968SP,2013-10-05 09:21:00,
2013-10-05 02:26:00,40.5,32.0,30.24,SW,232,0.0,0.0,72,0.00,,,0.00,WUHU216WMR968SP,2013-10-05 09:26:00,
2013-10-05 02:31:00,40.5,33.8,30.24,SW,232,0.0,0.0,73,0.00,,,0.00,WUHU216WMR968SP,2013-10-05 09:31:00,
2013-10-05 02:36:00,40.5,33.8,30.24,SW,232,0.0,0.0,73,0.00,,,0.00,WUHU216WMR968SP,2013-10-05 09:36:00,
2013-10-05 02:41:00,40.5,33.8,30.24,SW,232,0.0,0.0,73,0.00,,,0.00,WUHU216WMR968SP,2013-10-05 09:41:00,
2013-10-05 02:46:00,40.3,33.8,30.24,SW,232,0.0,0.0,73,0.00,,,0.00,WUHU216WMR968SP,2013-10-05 09:46:00,
2013-10-05 02:51:00,40.3,33.8,30.24,SW,232,0.0,0.0,73,0.00,,,0.00,WUHU216WMR968SP,2013-10-05 09:51:00,
2013-10-05 03:35:00,39.7,32.0,30.24,SW,232,0.0,0.0,73,0.00,,,0.00,WUHU216WMR968SP,2013-10-05 10:35:00,
2013-10-05 03:40:00,39.6,32.0,30.24,SW,232,0.0,0.0,73,0.00,,,0.00,WUHU216WMR968SP,2013-10-05 10:40:00,
2013-10-05 03:45:00,39.6,32.0,30.24,SW,232,0.0,0.0,74,0.00,,,0.00,WUHU216WMR968SP,2013-10-05 10:45:00,
2013-10-05 03:50:00,39.7,32.0,30.24,SW,232,0.0,0.0,74,0.00,,,0.00,WUHU216WMR968SP,2013-10-05 10:50:00,
2013-10-05 03:55:00,39.6,32.0,30.24,SW,232,0.0,0.0,74,0.00,,,0.00,WUHU216WMR968SP,2013-10-05 10:55:00,
2013-10-05 04:00:00,39.4,32.0,30.24,SW,232,0.0,0.0,73,0.00,,,0.00,WUHU216WMR968SP,2013-10-05 11:00:00,
2013-10-05 04:05:00,39.2,32.0,30.24,SW,232,0.0,0.0,74,0.00,,,0.00,WUHU216WMR968SP,2013-10-05 11:05:00,
2013-10-05 04:10:00,39.2,32.0,30.21,SW,232,0.0,0.0,74,0.00,,,0.00,WUHU216WMR968SP,2013-10-05 11:10:00,
2013-10-05 04:15:00,39.2,32.0,30.21,SW,232,0.0,0.0,74,0.00,,,0.00,WUHU216WMR968SP,2013-10-05 11:15:00,
2013-10-05 04:20:00,39.2,32.0,30.21,SW,232,0.0,0.0,74,0.00,,,0.00,WUHU216WMR968SP,2013-10-05 11:20:00,
2013-10-05 04:25:00,39.2,32.0,30.21,SW,232,0.0,0.0,74,0.00,,,0.00,WUHU216WMR968SP,2013-10-05 11:25:00,
2013-10-05 04:30:00,39.2,32.0,30.21,SW,232,0.0,0.0,74,0.00,,,0.00,WUHU216WMR968SP,2013-10-05 11:30:00,
2013-10-05 04:35:00,39.2,32.0,30.21,SW,232,0.0,0.0,74,0.00,,,0.00,WUHU216WMR968SP,2013-10-05 11:35:00,
2013-10-05 04:40:00,39.2,32.0,30.21,SW,232,0.0,0.0,74,0.00,,,0.00,WUHU216WMR968SP,2013-10-05 11:40:00,
2013-10-05 04:45:00,39.2,32.0,30.21,SW,232,0.0,0.0,74,0.00,,,0.00,WUHU216WMR968SP,2013-10-05 11:45:00,
2013-10-05 04:50:00,39.2,32.0,30.21,SW,232,0.0,0.0,74,0.00,,,0.00,WUHU216WMR968SP,2013-10-05 11:50:00,
2013-10-05 04:55:00,39.2,32.0,30.21,SW,232,0.0,0.0,74,0.00,,,0.00,WUHU216WMR968SP,2013-10-05 11:55:00,
2013-10-05 05:00:00,39.0,32.0,30.21,SW,232,0.0,0.0,75,0.00,,,0.00,WUHU216WMR968SP,2013-10-05 12:00:00,
2013-10-05 05:05:00,39.0,32.0,30.21,SW,232,0.0,0.0,75,0.00,,,0.00,WUHU216WMR968SP,2013-10-05 12:05:00,
2013-10-05 05:10:00,38.8,32.0,30.21,SW,232,0.0,0.0,75,0.00,,,0.00,WUHU216WMR968SP,2013-10-05 12:10:00,
2013-10-05 05:15:00,38.7,32.0,30.21,SW,232,0.0,0.0,75,0.00,,,0.00,WUHU216WMR968SP,2013-10-05 12:15:00,
2013-10-05 05:20:00,38.7,32.0,30.21,SW,232,0.0,0.0,75,0.00,,,0.00,WUHU216WMR968SP,2013-10-05 12:20:00,
2013-10-05 05:25:00,38.5,32.0,30.21,SW,232,0.0,0.0,75,0.00,,,0.00,WUHU216WMR968SP,2013-10-05 12:25:00,
2013-10-05 05:30:00,38.3,32.0,30.21,SW,232,0.0,0.0,75,0.00,,,0.00,WUHU216WMR968SP,2013-10-05 12:30:00,
2013-10-05 05:35:00,38.3,32.0,30.21,SW,232,0.0,0.0,75,0.00,,,0.00,WUHU216WMR968SP,2013-10-05 12:35:00,
2013-10-05 05:40:00,38.3,32.0,30.21,SW,232,0.0,0.0,75,0.00,,,0.00,WUHU216WMR968SP,2013-10-05 12:40:00,
2013-10-05 05:45:00,38.1,30.9,30.21,SW,232,0.0,0.0,75,0.00,,,0.00,WUHU216WMR968SP,2013-10-05 12:45:00,
2013-10-05 05:50:00,38.1,30.9,30.21,SW,232,0.0,0.0,75,0.00,,,0.00,WUHU216WMR968SP,2013-10-05 12:50:00,
2013-10-05 05:55:00,38.1,30.9,30.21,SW,232,0.0,0.0,75,0.00,,,0.00,WUHU216WMR968SP,2013-10-05 12:55:00,
2013-10-05 06:00:00,37.9,30.7,30.21,SW,232,0.0,0.0,75,0.00,,,0.00,WUHU216WMR968SP,2013-10-05 13:00:00,
2013-10-05 06:05:00,37.9,30.7,30.21,SW,232,0.0,0.0,75,0.00,,,0.00,WUHU216WMR968SP,2013-10-05 13:05:00,
2013-10-05 06:10:00,37.9,30.7,30.21,SW,232,0.0,0.0,75,0.00,,,0.00,WUHU216WMR968SP,2013-10-05 13:10:00,
2013-10-05 06:15:00,37.8,30.6,30.21,SW,232,0.0,0.0,75,0.00,,,0.00,WUHU216WMR968SP,2013-10-05 13:15:00,
2013-10-05 06:20:00,37.6,30.4,30.21,SW,232,0.0,0.0,75,0.00,,,0.00,WUHU216WMR968SP,2013-10-05 13:20:00,
2013-10-05 06:25:00,37.6,30.4,30.21,SW,232,0.0,0.0,75,0.00,,,0.00,WUHU216WMR968SP,2013-10-05 13:25:00,
2013-10-05 06:30:00,37.9,30.7,30.21,SW,232,0.0,0.0,75,0.00,,,0.00,WUHU216WMR968SP,2013-10-05 13:30:00,
2013-10-05 06:35:00,37.8,30.6,30.21,SW,232,0.0,0.0,75,0.00,,,0.00,WUHU216WMR968SP,2013-10-05 13:35:00,
2013-10-05 06:40:00,37.6,30.4,30.21,SW,232,0.0,0.0,75,0.00,,,0.00,WUHU216WMR968SP,2013-10-05 13:40:00,
2013-10-05 06:45:00,37.4,30.2,30.21,SW,232,0.0,0.0,75,0.00,,,0.00,WUHU216WMR968SP,2013-10-05 13:45:00,
2013-10-05 06:50:00,37.4,30.2,30.21,SW,232,0.0,0.0,75,0.00,,,0.00,WUHU216WMR968SP,2013-10-05 13:50:00,
2013-10-05 06:55:00,37.4,30.2,30.21,SW,232,0.0,0.0,75,0.00,,,0.00,WUHU216WMR968SP,2013-10-05 13:55:00,
2013-10-05 07:00:00,37.4,30.2,30.21,SW,232,0.0,0.0,75,0.00,,,0.00,WUHU216WMR968SP,2013-10-05 14:00:00,
2013-10-05 07:06:00,37.2,30.4,30.21,SW,232,0.0,0.0,76,0.00,,,0.00,WUHU216WMR968SP,2013-10-05 14:06:00,
2013-10-05 07:11:00,37.2,30.4,30.21,SW,232,0.0,0.0,76,0.00,,,0.00,WUHU216WMR968SP,2013-10-05 14:11:00,
2013-10-05 07:16:00,37.0,30.2,30.21,SW,233,0.0,0.0,76,0.00,,,0.00,WUHU216WMR968SP,2013-10-05 14:16:00,
2013-10-05 07:21:00,37.2,30.4,30.21,SW,232,0.0,0.0,76,0.00,,,0.00,WUHU216WMR968SP,2013-10-05 14:21:00,
2013-10-05 07:26:00,37.4,30.6,30.21,SW,233,0.0,0.0,76,0.00,,,0.00,WUHU216WMR968SP,2013-10-05 14:26:00,
2013-10-05 07:31:00,37.4,30.6,30.21,SW,233,0.0,0.0,76,0.00,,,0.00,WUHU216WMR968SP,2013-10-05 14:31:00,
2013-10-05 07:36:00,37.4,30.6,30.21,SW,234,0.0,0.0,76,0.00,,,0.00,WUHU216WMR968SP,2013-10-05 14:36:00,
2013-10-05 07:41:00,37.4,30.6,30.21,SW,233,0.0,0.0,76,0.00,,,0.00,WUHU216WMR968SP,2013-10-05 14:41:00,
2013-10-05 07:46:00,37.4,30.6,30.21,SW,233,0.0,0.0,76,0.00,,,0.00,WUHU216WMR968SP,2013-10-05 14:46:00,
2013-10-05 07:51:00,37.4,30.6,30.21,SW,234,0.0,0.0,76,0.00,,,0.00,WUHU216WMR968SP,2013-10-05 14:51:00,
2013-10-05 07:56:00,37.6,30.8,30.21,SW,233,0.0,0.0,76,0.00,,,0.00,WUHU216WMR968SP,2013-10-05 14:56:00,
2013-10-05 08:01:00,37.8,31.0,30.21,SW,234,0.0,0.0,76,0.00,,,0.00,WUHU216WMR968SP,2013-10-05 15:01:00,
2013-10-05 08:06:00,38.1,31.2,30.21,SW,233,0.0,0.0,76,0.00,,,0.00,WUHU216WMR968SP,2013-10-05 15:06:00,
2013-10-05 08:11:00,38.3,32.0,30.21,SW,234,0.0,0.0,77,0.00,,,0.00,WUHU216WMR968SP,2013-10-05 15:11:00,
2013-10-05 08:16:00,38.5,32.0,30.21,SW,234,0.0,0.0,77,0.00,,,0.00,WUHU216WMR968SP,2013-10-05 15:16:00,
2013-10-05 08:21:00,38.8,32.0,30.21,SW,233,0.0,0.0,77,0.00,,,0.00,WUHU216WMR968SP,2013-10-05 15:21:00,
2013-10-05 08:26:00,39.0,32.0,30.21,SW,234,0.0,0.0,77,0.00,,,0.00,WUHU216WMR968SP,2013-10-05 15:26:00,
2013-10-05 08:31:00,39.4,32.0,30.21,SW,234,0.0,0.0,77,0.00,,,0.00,WUHU216WMR968SP,2013-10-05 15:31:00,
2013-10-05 08:36:00,39.9,32.0,30.21,SW,234,0.0,0.0,77,0.00,,,0.00,WUHU216WMR968SP,2013-10-05 15:36:00,
2013-10-05 08:41:00,40.5,33.8,30.21,SW,234,0.0,0.0,77,0.00,,,0.00,WUHU216WMR968SP,2013-10-05 15:41:00,
2013-10-05 08:46:00,41.0,33.8,30.21,SW,234,0.0,0.0,77,0.00,,,0.00,WUHU216WMR968SP,2013-10-05 15:46:00,
2013-10-05 08:51:00,41.4,33.8,30.21,SW,233,0.0,0.0,77,0.00,,,0.00,WUHU216WMR968SP,2013-10-05 15:51:00,
2013-10-05 08:56:00,41.7,33.8,30.21,SW,234,0.0,0.0,77,0.00,,,0.00,WUHU216WMR968SP,2013-10-05 15:56:00,
2013-10-05 09:01:00,42.1,35.6,30.21,SW,234,0.0,0.0,77,0.00,,,0.00,WUHU216WMR968SP,2013-10-05 16:01:00,
2013-10-05 09:06:00,42.6,35.6,30.21,SW,233,0.0,0.0,77,0.00,,,0.00,WUHU216WMR968SP,2013-10-05 16:06:00,
2013-10-05 09:11:00,43.3,35.6,30.21,SW,234,0.0,0.0,77,0.00,,,0.00,WUHU216WMR968SP,2013-10-05 16:11:00,
2013-10-05 09:16:00,43.9,37.4,30.21,SW,233,0.0,0.0,77,0.00,,,0.00,WUHU216WMR968SP,2013-10-05 16:16:00,
2013-10-05 09:21:00,44.2,37.4,30.21,SW,233,0.0,0.0,77,0.00,,,0.00,WUHU216WMR968SP,2013-10-05 16:21:00,
2013-10-05 09:26:00,44.8,37.4,30.21,SW,233,0.0,0.0,77,0.00,,,0.00,WUHU216WMR968SP,2013-10-05 16:26:00,
2013-10-05 09:31:00,45.5,39.2,30.21,SW,234,0.0,0.0,77,0.00,,,0.00,WUHU216WMR968SP,2013-10-05 16:31:00,
2013-10-05 09:36:00,46.6,39.2,30.21,SW,234,0.0,0.0,77,0.00,,,0.00,WUHU216WMR968SP,2013-10-05 16:36:00,
2013-10-05 09:41:00,47.5,41.0,30.21,SW,233,0.0,0.0,77,0.00,,,0.00,WUHU216WMR968SP,2013-10-05 16:41:00,
2013-10-05 09:46:00,48.2,41.0,30.21,SW,233,0.0,0.0,77,0.00,,,0.00,WUHU216WMR968SP,2013-10-05 16:46:00,
2013-10-05 09:51:00,48.9,41.0,30.21,SW,233,0.0,0.0,77,0.00,,,0.00,WUHU216WMR968SP,2013-10-05 16:51:00,
2013-10-05 09:56:00,50.0,42.8,30.21,SW,234,0.0,0.0,76,0.00,,,0.00,WUHU216WMR968SP,2013-10-05 16:56:00,
2013-10-05 10:01:00,51.1,44.6,30.21,SW,227,0.0,0.0,76,0.00,,,0.00,WUHU216WMR968SP,2013-10-05 17:01:00,
2013-10-05 10:06:00,51.8,35.6,30.21,ESE,112,0.0,0.0,53,0.00,,,0.00,WUHU216WMR968SP,2013-10-05 17:06:00,
2013-10-05 10:11:00,52.5,29.3,30.21,ESE,112,0.0,0.0,41,0.00,,,0.00,WUHU216WMR968SP,2013-10-05 17:11:00,
2013-10-05 10:16:00,52.7,23.4,30.21,ESE,112,0.0,0.0,32,0.00,,,0.00,WUHU216WMR968SP,2013-10-05 17:16:00,
2013-10-05 10:21:00,53.1,23.0,30.21,ESE,113,0.0,0.0,31,0.00,,,0.00,WUHU216WMR968SP,2013-10-05 17:21:00,
2013-10-05 10:26:00,53.2,22.3,30.21,ESE,117,0.0,0.0,30,0.00,,,0.00,WUHU216WMR968SP,2013-10-05 17:26:00,
2013-10-05 10:31:00,53.6,21.9,30.21,ESE,118,0.0,0.0,29,0.00,,,0.00,WUHU216WMR968SP,2013-10-05 17:31:00,
2013-10-05 10:36:00,54.1,22.3,30.18,SW,216,0.0,0.0,29,0.00,,,0.00,WUHU216WMR968SP,2013-10-05 17:36:00,
2013-10-05 10:41:00,54.5,22.7,30.18,SW,215,0.0,0.0,29,0.00,,,0.00,WUHU216WMR968SP,2013-10-05 17:41:00,
2013-10-05 10:46:00,54.7,22.8,30.18,SW,216,0.0,0.0,29,0.00,,,0.00,WUHU216WMR968SP,2013-10-05 17:46:00,
2013-10-05 10:51:00,54.9,22.2,30.18,SW,216,0.0,0.0,28,0.00,,,0.00,WUHU216WMR968SP,2013-10-05 17:51:00,
2013-10-05 10:56:00,55.2,22.4,30.18,SW,216,0.0,0.0,28,0.00,,,0.00,WUHU216WMR968SP,2013-10-05 17:56:00,
2013-10-05 11:01:00,55.6,22.8,30.18,South,181,0.0,0.0,28,0.00,,,0.00,WUHU216WMR968SP,2013-10-05 18:01:00,
2013-10-05 11:06:00,55.8,23.0,30.18,South,181,0.0,0.0,28,0.00,,,0.00,WUHU216WMR968SP,2013-10-05 18:06:00,
2013-10-05 11:11:00,55.9,23.1,30.18,SSE,149,0.0,0.0,28,0.00,,,0.00,WUHU216WMR968SP,2013-10-05 18:11:00,
2013-10-05 11:16:00,56.3,24.2,30.18,SSE,149,0.0,0.0,29,0.00,,,0.00,WUHU216WMR968SP,2013-10-05 18:16:00,
2013-10-05 11:21:00,56.8,24.7,30.18,SSE,149,0.0,0.0,29,0.00,,,0.00,WUHU216WMR968SP,2013-10-05 18:21:00,
2013-10-05 11:26:00,57.4,23.5,30.18,SSE,149,0.0,0.0,27,0.00,,,0.00,WUHU216WMR968SP,2013-10-05 18:26:00,
2013-10-05 11:31:00,57.7,24.6,30.18,SSE,158,0.0,0.0,28,0.00,,,0.00,WUHU216WMR968SP,2013-10-05 18:31:00,
2013-10-05 11:36:00,58.3,23.4,30.18,South,186,0.0,0.0,26,0.00,,,0.00,WUHU216WMR968SP,2013-10-05 18:36:00,
2013-10-05 11:41:00,58.6,23.6,30.18,SSW,203,0.0,0.0,26,0.00,,,0.00,WUHU216WMR968SP,2013-10-05 18:41:00,
2013-10-05 11:46:00,59.2,23.2,30.18,SSW,202,0.0,0.0,25,0.00,,,0.00,WUHU216WMR968SP,2013-10-05 18:46:00,
2013-10-05 11:51:00,59.9,23.8,30.15,SSW,203,0.0,0.0,25,0.00,,,0.00,WUHU216WMR968SP,2013-10-05 18:51:00,
2013-10-05 11:56:00,60.6,24.4,30.15,SSW,203,0.0,0.0,25,0.00,,,0.00,WUHU216WMR968SP,2013-10-05 18:56:00,
2013-10-05 12:01:00,61.2,24.0,30.15,NW,326,0.0,0.0,24,0.00,,,0.00,WUHU216WMR968SP,2013-10-05 19:01:00,
2013-10-05 12:06:00,61.5,24.2,30.15,SW,220,0.0,0.0,24,0.00,,,0.00,WUHU216WMR968SP,2013-10-05 19:06:00,
2013-10-05 12:11:00,61.7,24.4,30.15,West,271,0.0,0.0,24,0.00,,,0.00,WUHU216WMR968SP,2013-10-05 19:11:00,
2013-10-05 12:16:00,62.2,24.8,30.15,West,269,0.0,0.0,24,0.00,,,0.00,WUHU216WMR968SP,2013-10-05 19:16:00,
2013-10-05 12:21:00,62.2,24.8,30.15,WSW,252,0.0,0.0,24,0.00,,,0.00,WUHU216WMR968SP,2013-10-05 19:21:00,
2013-10-05 12:26:00,62.4,25.0,30.15,WSW,248,0.0,0.0,24,0.00,,,0.00,WUHU216WMR968SP,2013-10-05 19:26:00,
2013-10-05 12:31:00,62.4,25.0,30.15,SW,234,0.0,0.0,24,0.00,,,0.00,WUHU216WMR968SP,2013-10-05 19:31:00,
2013-10-05 12:36:00,62.2,24.8,30.15,WSW,248,0.0,0.0,24,0.00,,,0.00,WUHU216WMR968SP,2013-10-05 19:36:00,
2013-10-05 12:41:00,62.2,24.8,30.15,West,265,0.0,0.0,24,0.00,,,0.00,WUHU216WMR968SP,2013-10-05 19:41:00,
2013-10-05 12:46:00,62.4,25.0,30.15,WNW,289,0.0,0.0,24,0.00,,,0.00,WUHU216WMR968SP,2013-10-05 19:46:00,
2013-10-05 12:51:00,62.8,24.3,30.15,WSW,241,0.0,0.0,23,0.00,,,0.00,WUHU216WMR968SP,2013-10-05 19:51:00,
2013-10-05 12:56:00,63.0,24.5,30.15,WNW,286,0.0,0.0,23,0.00,,,0.00,WUHU216WMR968SP,2013-10-05 19:56:00,
2013-10-05 13:01:00,63.0,24.5,30.15,SSW,202,0.0,0.0,23,0.00,,,0.00,WUHU216WMR968SP,2013-10-05 20:01:00,
2013-10-05 13:06:00,63.0,24.5,30.12,SW,226,0.0,0.0,23,0.00,,,0.00,WUHU216WMR968SP,2013-10-05 20:06:00,
2013-10-05 13:11:00,63.0,24.5,30.12,SW,216,0.0,0.0,23,0.00,,,0.00,WUHU216WMR968SP,2013-10-05 20:11:00,
2013-10-05 13:16:00,62.6,24.2,30.12,SW,218,0.0,0.0,23,0.00,,,0.00,WUHU216WMR968SP,2013-10-05 20:16:00,
2013-10-05 13:21:00,62.6,24.2,30.12,WSW,245,0.0,0.0,23,0.00,,,0.00,WUHU216WMR968SP,2013-10-05 20:21:00,
2013-10-05 13:26:00,62.6,25.2,30.12,WSW,237,0.0,0.0,24,0.00,,,0.00,WUHU216WMR968SP,2013-10-05 20:26:00,
2013-10-05 13:31:00,62.6,24.2,30.12,SW,235,0.0,0.0,23,0.00,,,0.00,WUHU216WMR968SP,2013-10-05 20:31:00,
2013-10-05 13:36:00,62.4,25.0,30.12,SW,226,0.0,0.0,24,0.00,,,0.00,WUHU216WMR968SP,2013-10-05 20:36:00,
2013-10-05 13:41:00,62.6,25.2,30.12,SW,221,0.0,0.0,24,0.00,,,0.00,WUHU216WMR968SP,2013-10-05 20:41:00,
2013-10-05 13:46:00,62.6,25.2,30.12,SW,226,0.0,0.0,24,0.00,,,0.00,WUHU216WMR968SP,2013-10-05 20:46:00,
2013-10-05 13:51:00,62.8,25.3,30.12,SW,233,0.0,0.0,24,0.00,,,0.00,WUHU216WMR968SP,2013-10-05 20:51:00,
2013-10-05 13:56:00,63.0,25.5,30.12,SW,228,0.0,0.0,24,0.00,,,0.00,WUHU216WMR968SP,2013-10-05 20:56:00,
2013-10-05 14:01:00,63.1,25.6,30.12,SW,226,0.0,0.0,24,0.00,,,0.00,WUHU216WMR968SP,2013-10-05 21:01:00,
2013-10-05 14:06:00,63.3,25.8,30.12,SW,225,0.0,0.0,24,0.00,,,0.00,WUHU216WMR968SP,2013-10-05 21:06:00,
2013-10-05 14:11:00,63.3,25.8,30.12,SW,216,0.0,0.0,24,0.00,,,0.00,WUHU216WMR968SP,2013-10-05 21:11:00,
2013-10-05 14:16:00,63.3,25.8,30.12,SW,226,0.0,0.0,24,0.00,,,0.00,WUHU216WMR968SP,2013-10-05 21:16:00,
2013-10-05 14:21:00,63.7,26.1,30.12,SW,222,0.0,0.0,24,0.00,,,0.00,WUHU216WMR968SP,2013-10-05 21:21:00,
2013-10-05 14:26:00,63.7,26.1,30.12,SW,220,0.0,0.0,24,0.00,,,0.00,WUHU216WMR968SP,2013-10-05 21:26:00,
2013-10-05 14:31:00,63.9,26.3,30.12,SW,220,0.0,0.0,24,0.00,,,0.00,WUHU216WMR968SP,2013-10-05 21:31:00,
2013-10-05 14:36:00,64.2,26.5,30.12,SW,220,0.0,0.0,24,0.00,,,0.00,WUHU216WMR968SP,2013-10-05 21:36:00,
2013-10-05 14:41:00,64.4,25.7,30.12,SW,223,0.0,0.0,23,0.00,,,0.00,WUHU216WMR968SP,2013-10-05 21:41:00,
2013-10-05 14:46:00,64.4,25.7,30.12,SW,227,0.0,0.0,23,0.00,,,0.00,WUHU216WMR968SP,2013-10-05 21:46:00,
2013-10-05 14:51:00,64.4,25.7,30.09,SW,226,0.0,0.0,23,0.00,,,0.00,WUHU216WMR968SP,2013-10-05 21:51:00,
2013-10-05 14:56:00,64.6,25.8,30.09,SW,224,0.0,0.0,23,0.00,,,0.00,WUHU216WMR968SP,2013-10-05 21:56:00,
2013-10-05 15:01:00,64.6,25.8,30.09,SW,221,0.0,0.0,23,0.00,,,0.00,WUHU216WMR968SP,2013-10-05 22:01:00,
2013-10-05 15:06:00,64.8,26.0,30.09,SW,221,0.0,0.0,23,0.00,,,0.00,WUHU216WMR968SP,2013-10-05 22:06:00,
2013-10-05 15:11:00,64.9,26.1,30.09,SW,220,0.0,0.0,23,0.00,,,0.00,WUHU216WMR968SP,2013-10-05 22:11:00,
2013-10-05 15:16:00,64.9,26.1,30.09,SW,220,0.0,0.0,23,0.00,,,0.00,WUHU216WMR968SP,2013-10-05 22:16:00,
2013-10-05 15:21:00,65.1,26.3,30.09,SW,220,0.0,0.0,23,0.00,,,0.00,WUHU216WMR968SP,2013-10-05 22:21:00,
2013-10-05 15:26:00,65.3,26.4,30.09,SW,220,0.0,0.0,23,0.00,,,0.00,WUHU216WMR968SP,2013-10-05 22:26:00,
2013-10-05 15:31:00,65.5,26.6,30.09,SW,220,0.0,0.0,23,0.00,,,0.00,WUHU216WMR968SP,2013-10-05 22:31:00,
2013-10-05 15:36:00,65.7,26.8,30.09,SW,220,0.0,0.0,23,0.00,,,0.00,WUHU216WMR968SP,2013-10-05 22:36:00,
2013-10-05 15:41:00,65.7,26.8,30.09,WSW,245,0.0,0.0,23,0.00,,,0.00,WUHU216WMR968SP,2013-10-05 22:41:00,
2013-10-05 15:46:00,65.8,26.9,30.09,WSW,251,0.0,0.0,23,0.00,,,0.00,WUHU216WMR968SP,2013-10-05 22:46:00,
2013-10-05 15:51:00,65.8,26.9,30.09,WSW,237,0.0,0.0,23,0.00,,,0.00,WUHU216WMR968SP,2013-10-05 22:51:00,
2013-10-05 15:56:00,65.7,23.5,30.09,WNW,291,0.0,0.0,20,0.00,,,0.00,WUHU216WMR968SP,2013-10-05 22:56:00,
2013-10-05 16:01:00,65.7,26.8,30.09,WSW,241,0.0,0.0,23,0.00,,,0.00,WUHU216WMR968SP,2013-10-05 23:01:00,
2013-10-05 16:06:00,65.7,26.8,30.09,WSW,241,0.0,0.0,23,0.00,,,0.00,WUHU216WMR968SP,2013-10-05 23:06:00,
2013-10-05 16:11:00,65.7,23.5,30.09,WSW,241,0.0,0.0,20,0.00,,,0.00,WUHU216WMR968SP,2013-10-05 23:11:00,
2013-10-05 16:16:00,65.7,23.5,30.09,SW,235,0.0,0.0,20,0.00,,,0.00,WUHU216WMR968SP,2013-10-05 23:16:00,
2013-10-05 16:21:00,65.5,23.3,30.09,WSW,240,0.0,0.0,20,0.00,,,0.00,WUHU216WMR968SP,2013-10-05 23:21:00,
2013-10-05 16:26:00,65.7,23.5,30.09,SSW,195,0.0,0.0,20,0.00,,,0.00,WUHU216WMR968SP,2013-10-05 23:26:00,
2013-10-05 16:31:00,65.7,23.5,30.09,SSW,209,0.0,0.0,20,0.00,,,0.00,WUHU216WMR968SP,2013-10-05 23:31:00,
2013-10-05 16:36:00,65.7,23.5,30.09,SSW,209,0.0,0.0,20,0.00,,,0.00,WUHU216WMR968SP,2013-10-05 23:36:00,
2013-10-05 16:41:00,65.7,23.5,30.09,SSW,210,0.0,0.0,20,0.00,,,0.00,WUHU216WMR968SP,2013-10-05 23:41:00,
2013-10-05 16:46:00,65.7,23.5,30.09,SSW,209,0.0,0.0,20,0.00,,,0.00,WUHU216WMR968SP,2013-10-05 23:46:00,
2013-10-05 16:51:00,65.7,23.5,30.09,West,267,0.0,0.0,20,0.00,,,0.00,WUHU216WMR968SP,2013-10-05 23:51:00,
2013-10-05 16:56:00,65.7,23.5,30.09,West,267,0.0,0.0,20,0.00,,,0.00,WUHU216WMR968SP,2013-10-05 23:56:00,
2013-10-05 17:01:00,65.7,23.5,30.09,West,266,0.0,0.0,20,0.00,,,0.00,WUHU216WMR968SP,2013-10-06 00:01:00,
2013-10-05 17:06:00,66.0,23.7,30.09,West,266,0.0,0.0,20,0.00,,,0.00,WUHU216WMR968SP,2013-10-06 00:06:00,
2013-10-05 17:11:00,66.0,23.7,30.09,West,266,0.0,0.0,20,0.00,,,0.00,WUHU216WMR968SP,2013-10-06 00:11:00,
2013-10-05 17:16:00,65.5,23.3,30.09,West,266,0.0,0.0,20,0.00,,,0.00,WUHU216WMR968SP,2013-10-06 00:16:00,
2013-10-05 17:21:00,65.1,23.0,30.09,West,266,0.0,0.0,20,0.00,,,0.00,WUHU216WMR968SP,2013-10-06 00:21:00,
2013-10-05 17:26:00,64.9,26.1,30.09,West,266,0.0,0.0,23,0.00,,,0.00,WUHU216WMR968SP,2013-10-06 00:26:00,
2013-10-05 17:31:00,64.8,22.7,30.09,West,266,0.0,0.0,20,0.00,,,0.00,WUHU216WMR968SP,2013-10-06 00:31:00,
2013-10-05 17:36:00,64.6,25.8,30.06,West,266,0.0,0.0,23,0.00,,,0.00,WUHU216WMR968SP,2013-10-06 00:36:00,
2013-10-05 17:41:00,64.0,25.3,30.06,West,266,0.0,0.0,23,0.00,,,0.00,WUHU216WMR968SP,2013-10-06 00:41:00,
2013-10-05 17:46:00,63.1,25.6,30.06,West,266,0.0,0.0,24,0.00,,,0.00,WUHU216WMR968SP,2013-10-06 00:46:00,
2013-10-05 17:51:00,62.2,24.8,30.06,West,266,0.0,0.0,24,0.00,,,0.00,WUHU216WMR968SP,2013-10-06 00:51:00,
2013-10-05 17:56:00,61.5,25.2,30.06,West,266,0.0,0.0,25,0.00,,,0.00,WUHU216WMR968SP,2013-10-06 00:56:00,
2013-10-05 18:01:00,60.6,25.3,30.06,West,266,0.0,0.0,26,0.00,,,0.00,WUHU216WMR968SP,2013-10-06 01:01:00,
2013-10-05 18:06:00,60.1,24.9,30.06,West,266,0.0,0.0,26,0.00,,,0.00,WUHU216WMR968SP,2013-10-06 01:06:00,
2013-10-05 18:11:00,59.4,26.1,30.06,West,266,0.0,0.0,28,0.00,,,0.00,WUHU216WMR968SP,2013-10-06 01:11:00,
2013-10-05 18:16:00,58.5,26.1,30.06,West,266,0.0,0.0,29,0.00,,,0.00,WUHU216WMR968SP,2013-10-06 01:16:00,
2013-10-05 18:21:00,58.3,26.8,30.06,West,266,0.0,0.0,30,0.00,,,0.00,WUHU216WMR968SP,2013-10-06 01:21:00,
2013-10-05 18:26:00,57.6,27.7,30.06,West,266,0.0,0.0,32,0.00,,,0.00,WUHU216WMR968SP,2013-10-06 01:26:00,
2013-10-05 18:31:00,57.0,29.4,30.06,West,266,0.0,0.0,35,0.00,,,0.00,WUHU216WMR968SP,2013-10-06 01:31:00,
2013-10-05 18:36:00,56.5,28.9,30.06,West,266,0.0,0.0,35,0.00,,,0.00,WUHU216WMR968SP,2013-10-06 01:36:00,
2013-10-05 18:41:00,56.3,29.5,30.06,West,266,0.0,0.0,36,0.00,,,0.00,WUHU216WMR968SP,2013-10-06 01:41:00,
2013-10-05 18:46:00,55.8,29.0,30.06,West,266,0.0,0.0,36,0.00,,,0.00,WUHU216WMR968SP,2013-10-06 01:46:00,
2013-10-05 18:51:00,55.4,29.3,30.09,West,266,0.0,0.0,37,0.00,,,0.00,WUHU216WMR968SP,2013-10-06 01:51:00,
2013-10-05 18:56:00,54.9,28.9,30.09,West,266,0.0,0.0,37,0.00,,,0.00,WUHU216WMR968SP,2013-10-06 01:56:00,
2013-10-05 19:01:00,54.9,29.6,30.09,West,266,0.0,0.0,38,0.00,,,0.00,WUHU216WMR968SP,2013-10-06 02:01:00,
2013-10-05 19:06:00,54.9,30.2,30.09,West,266,0.0,0.0,39,0.00,,,0.00,WUHU216WMR968SP,2013-10-06 02:06:00,
2013-10-05 19:11:00,54.7,30.0,30.09,West,266,0.0,0.0,39,0.00,,,0.00,WUHU216WMR968SP,2013-10-06 02:11:00,
2013-10-05 19:16:00,54.5,29.9,30.09,West,266,0.0,0.0,39,0.00,,,0.00,WUHU216WMR968SP,2013-10-06 02:16:00,
2013-10-05 19:21:00,54.1,29.5,30.09,West,266,0.0,0.0,39,0.00,,,0.00,WUHU216WMR968SP,2013-10-06 02:21:00,
2013-10-05 19:26:00,53.8,29.2,30.09,West,266,0.0,0.0,39,0.00,,,0.00,WUHU216WMR968SP,2013-10-06 02:26:00,
2013-10-05 19:31:00,53.4,29.5,30.09,West,266,0.0,0.0,40,0.00,,,0.00,WUHU216WMR968SP,2013-10-06 02:31:00,
2013-10-05 19:36:00,53.1,29.2,30.09,West,266,0.0,0.0,40,0.00,,,0.00,WUHU216WMR968SP,2013-10-06 02:36:00,
2013-10-05 19:41:00,52.9,29.0,30.09,West,266,0.0,0.0,40,0.00,,,0.00,WUHU216WMR968SP,2013-10-06 02:41:00,
2013-10-05 19:46:00,52.5,29.3,30.09,West,266,0.0,0.0,41,0.00,,,0.00,WUHU216WMR968SP,2013-10-06 02:46:00,
2013-10-05 19:51:00,52.2,29.0,30.09,West,266,0.0,0.0,41,0.00,,,0.00,WUHU216WMR968SP,2013-10-06 02:51:00,
2013-10-05 19:56:00,51.8,29.3,30.09,West,266,0.0,0.0,42,0.00,,,0.00,WUHU216WMR968SP,2013-10-06 02:56:00,
2013-10-05 20:01:00,51.6,29.1,30.09,West,266,0.0,0.0,42,0.00,,,0.00,WUHU216WMR968SP,2013-10-06 03:01:00,
2013-10-05 20:06:00,51.4,29.5,30.09,West,266,0.0,0.0,43,0.00,,,0.00,WUHU216WMR968SP,2013-10-06 03:06:00,
2013-10-05 20:11:00,51.3,30.0,30.09,West,266,0.0,0.0,44,0.00,,,0.00,WUHU216WMR968SP,2013-10-06 03:11:00,
2013-10-05 20:16:00,50.9,29.6,30.09,West,266,0.0,0.0,44,0.00,,,0.00,WUHU216WMR968SP,2013-10-06 03:16:00,
2013-10-05 20:21:00,50.7,29.4,30.09,West,266,0.0,0.0,44,0.00,,,0.00,WUHU216WMR968SP,2013-10-06 03:21:00,
2013-10-05 20:26:00,50.5,29.8,30.09,West,266,0.0,0.0,45,0.00,,,0.00,WUHU216WMR968SP,2013-10-06 03:26:00,
2013-10-05 20:31:00,50.2,29.6,30.09,West,266,0.0,0.0,45,0.00,,,0.00,WUHU216WMR968SP,2013-10-06 03:31:00,
2013-10-05 20:36:00,50.2,30.1,30.09,West,266,0.0,0.0,46,0.00,,,0.00,WUHU216WMR968SP,2013-10-06 03:36:00,
2013-10-05 20:41:00,49.8,29.7,30.09,West,266,0.0,0.0,46,0.00,,,0.00,WUHU216WMR968SP,2013-10-06 03:41:00,
2013-10-05 20:46:00,49.6,30.1,30.09,West,266,0.0,0.0,47,0.00,,,0.00,WUHU216WMR968SP,2013-10-06 03:46:00,
2013-10-05 20:51:00,49.5,30.0,30.09,West,266,0.0,0.0,47,0.00,,,0.00,WUHU216WMR968SP,2013-10-06 03:51:00,
2013-10-05 20:56:00,49.3,29.8,30.09,West,266,0.0,0.0,47,0.00,,,0.00,WUHU216WMR968SP,2013-10-06 03:56:00,
2013-10-05 21:01:00,49.1,29.7,30.09,West,266,0.0,0.0,47,0.00,,,0.00,WUHU216WMR968SP,2013-10-06 04:01:00,
2013-10-05 21:02:00,49.1,29.7,30.09,West,266,0.0,0.0,47,0.00,,,0.00,WUHU216WMR968SP,2013-10-06 04:02:00,
2013-10-05 21:07:00,48.9,30.0,30.09,West,266,0.0,0.0,48,0.00,,,0.00,WUHU216WMR968SP,2013-10-06 04:07:00,
2013-10-05 21:12:00,48.7,29.8,30.09,West,266,0.0,0.0,48,0.00,,,0.00,WUHU216WMR968SP,2013-10-06 04:12:00,
2013-10-05 21:17:00,48.6,29.7,30.09,West,266,0.0,0.0,48,0.00,,,0.00,WUHU216WMR968SP,2013-10-06 04:17:00,
2013-10-05 21:22:00,48.4,29.5,30.09,West,266,0.0,0.0,48,0.00,,,0.00,WUHU216WMR968SP,2013-10-06 04:22:00,
2013-10-05 21:27:00,48.2,29.9,30.09,West,266,0.0,0.0,49,0.00,,,0.00,WUHU216WMR968SP,2013-10-06 04:27:00,
2013-10-05 21:32:00,48.2,29.9,30.09,West,266,0.0,0.0,49,0.00,,,0.00,WUHU216WMR968SP,2013-10-06 04:32:00,
2013-10-05 21:37:00,48.0,30.2,30.09,West,266,0.0,0.0,50,0.00,,,0.00,WUHU216WMR968SP,2013-10-06 04:37:00,
2013-10-05 21:42:00,48.0,30.2,30.09,West,266,0.0,0.0,50,0.00,,,0.00,WUHU216WMR968SP,2013-10-06 04:42:00,
2013-10-05 21:47:00,47.8,30.0,30.09,West,266,0.0,0.0,50,0.00,,,0.00,WUHU216WMR968SP,2013-10-06 04:47:00,
2013-10-05 21:52:00,47.7,30.4,30.09,West,266,0.0,0.0,51,0.00,,,0.00,WUHU216WMR968SP,2013-10-06 04:52:00,
2013-10-05 21:57:00,47.7,30.4,30.09,West,266,0.0,0.0,51,0.00,,,0.00,WUHU216WMR968SP,2013-10-06 04:57:00,
2013-10-05 22:02:00,47.5,32.0,30.09,West,266,0.0,0.0,52,0.00,,,0.00,WUHU216WMR968SP,2013-10-06 05:02:00,
2013-10-05 22:07:00,47.3,32.0,30.09,West,266,0.0,0.0,52,0.00,,,0.00,WUHU216WMR968SP,2013-10-06 05:07:00,
2013-10-05 22:12:00,47.3,32.0,30.09,West,266,0.0,0.0,52,0.00,,,0.00,WUHU216WMR968SP,2013-10-06 05:12:00,
2013-10-05 22:17:00,47.1,30.9,30.09,West,266,0.0,0.0,53,0.00,,,0.00,WUHU216WMR968SP,2013-10-06 05:17:00,
2013-10-05 22:22:00,47.1,30.9,30.09,West,266,0.0,0.0,53,0.00,,,0.00,WUHU216WMR968SP,2013-10-06 05:22:00,
2013-10-05 22:27:00,47.1,30.9,30.09,West,266,0.0,0.0,53,0.00,,,0.00,WUHU216WMR968SP,2013-10-06 05:27:00,
2013-10-05 22:32:00,46.9,31.1,30.09,West,266,0.0,0.0,54,0.00,,,0.00,WUHU216WMR968SP,2013-10-06 05:32:00,
2013-10-05 22:37:00,46.9,31.1,30.09,West,266,0.0,0.0,54,0.00,,,0.00,WUHU216WMR968SP,2013-10-06 05:37:00,
2013-10-05 22:42:00,46.8,32.0,30.09,West,266,0.0,0.0,55,0.00,,,0.00,WUHU216WMR968SP,2013-10-06 05:42:00,
2013-10-05 22:47:00,46.6,32.0,30.09,West,266,0.0,0.0,56,0.00,,,0.00,WUHU216WMR968SP,2013-10-06 05:47:00,
2013-10-05 22:52:00,46.6,32.0,30.09,West,266,0.0,0.0,56,0.00,,,0.00,WUHU216WMR968SP,2013-10-06 05:52:00,
2013-10-05 22:57:00,46.4,32.0,30.09,West,266,0.0,0.0,56,0.00,,,0.00,WUHU216WMR968SP,2013-10-06 05:57:00,
2013-10-05 23:02:00,46.2,32.0,30.09,West,266,0.0,0.0,58,0.00,,,0.00,WUHU216WMR968SP,2013-10-06 06:02:00,
2013-10-05 23:07:00,46.2,32.0,30.09,West,266,0.0,0.0,58,0.00,,,0.00,WUHU216WMR968SP,2013-10-06 06:07:00,
2013-10-05 23:12:00,46.2,33.8,30.09,West,266,0.0,0.0,59,0.00,,,0.00,WUHU216WMR968SP,2013-10-06 06:12:00,
2013-10-05 23:17:00,46.0,33.8,30.09,West,266,0.0,0.0,59,0.00,,,0.00,WUHU216WMR968SP,2013-10-06 06:17:00,
2013-10-05 23:22:00,45.9,33.8,30.09,West,266,0.0,0.0,60,0.00,,,0.00,WUHU216WMR968SP,2013-10-06 06:22:00,
2013-10-05 23:27:00,45.9,33.8,30.09,West,266,0.0,0.0,61,0.00,,,0.00,WUHU216WMR968SP,2013-10-06 06:27:00,
2013-10-05 23:32:00,45.7,33.8,30.09,West,266,0.0,0.0,62,0.00,,,0.00,WUHU216WMR968SP,2013-10-06 06:32:00,
2013-10-05 23:37:00,45.7,33.8,30.06,West,266,0.0,0.0,63,0.00,,,0.00,WUHU216WMR968SP,2013-10-06 06:37:00,
2013-10-05 23:42:00,45.5,33.8,30.06,West,266,0.0,0.0,63,0.00,,,0.00,WUHU216WMR968SP,2013-10-06 06:42:00,
2013-10-05 23:47:00,45.5,33.8,30.06,West,266,0.0,0.0,63,0.00,,,0.00,WUHU216WMR968SP,2013-10-06 06:47:00,
2013-10-05 23:52:00,45.3,33.8,30.06,West,266,0.0,0.0,64,0.00,,,0.00,WUHU216WMR968SP,2013-10-06 06:52:00,
2013-10-05 23:57:00,45.3,33.8,30.06,West,266,0.0,0.0,65,0.00,,,0.00,WUHU216WMR968SP,2013-10-06 06:57:00,